QPF
0.00 0.00 0.00 0.00 0.00 0.00 0.01 0.02 0.04 0.06 0.08 0.09 0.07 0.08 0.07 0.05 0.05 0.04 0.03 0.02 0.02 0.02 0.04 0.05 0.05 0.05 0.05 0.04 0.04 0.05 0.08 0.08 0.08 0.09 0.08 0.06 0.05 0.05 0.04 0.03 0.03 0.03 0.02
0.00 0.00 0.00 0.00 0.00 0.00 0.01 0.01 0.01 0.03 0.04 0.06 0.06 0.06 0.05 0.05 0.05 0.06 0.06 0.04 0.03 0.03 0.05 0.06 0.06 0.06 0.06 0.06 0.04 0.04 0.06 0.08 0.08 0.09 0.09 0.07 0.05 0.04 0.03 0.03 0.02 0.02 0.02
0.00 0.00 0.00 0.00 0.00 0.00 0.00 0.01 0.01 0.01 0.01 0.03 0.05 0.07 0.08 0.07 0.05 0.04 0.05 0.05 0.04 0.03 0.05 0.06 0.07 0.07 0.06 0.06 0.07 0.06 0.06 0.06 0.07 0.08 0.10 0.09 0.06 0.04 0.04 0.03 0.03 0.02 0.01
0.00 0.00 0.00 0.00 0.00 0.00 0.00 0.00 0.01 0.01 0.01 0.01 0.02 0.04 0.09 0.11 0.07 0.03 0.03 0.04 0.06 0.06 0.06 0.05 0.05 0.07 0.06 0.06 0.07 0.07 0.07 0.06 0.06 0.06 0.08 0.09 0.08 0.06 0.05 0.04 0.04 0.03 0.01
0.00 0.00 0.00 0.00 0.00 0.00 0.00 0.00 0.00 0.01 0.01 0.01 0.01 0.02 0.05 0.08 0.09 0.06 0.02 0.02 0.04 0.05 0.06 0.05 0.05 0.06 0.06 0.06 0.06 0.06 0.05 0.04 0.04 0.05 0.06 0.07 0.08 0.07 0.06 0.04 0.05 0.05 0.03
0.00 0.00 0.00 0.00 0.00 0.00 0.00 0.00 0.01 0.01 0.01 0.01 0.01 0.01 0.02 0.05 0.08 0.10 0.07 0.03 0.03 0.03 0.04 0.05 0.04 0.05 0.06 0.04 0.04 0.03 0.03 0.02 0.02 0.02 0.04 0.05 0.06 0.06 0.06 0.05 0.04 0.05 0.04
0.00 0.00 0.00 0.00 0.00 0.00 0.00 0.00 0.00 0.01 0.01 0.01 0.02 0.02 0.01 0.02 0.04 0.09 0.10 0.06 0.04 0.03 0.03 0.04 0.04 0.04 0.04 0.04 0.04 0.03 0.02 0.02 0.01 0.02 0.02 0.03 0.04 0.05 0.06 0.06 0.05 0.05 0.05
0.00 0.00 0.00 0.00 0.00 0.00 0.00 0.00 0.00 0.00 0.01 0.01 0.02 0.03 0.03 0.02 0.03 0.04 0.07 0.08 0.05 0.03 0.03 0.03 0.04 0.04 0.04 0.04 0.05 0.06 0.06 0.05 0.04 0.03 0.02 0.02 0.03 0.04 0.04 0.05 0.05 0.05 0.05
0.00 0.00 0.00 0.00 0.00 0.00 0.00 0.01 0.00 0.00 0.01 0.01 0.02 0.02 0.03 0.04 0.05 0.05 0.04 0.08 0.07 0.05 0.03 0.03 0.03 0.03 0.04 0.04 0.04 0.04 0.05 0.05 0.06 0.06 0.05 0.04 0.04 0.04 0.05 0.05 0.05 0.06 0.07
0.00 0.00 0.00 0.00 0.01 0.00 0.00 0.01 0.01 0.01 0.01 0.01 0.01 0.02 0.02 0.03 0.05 0.07 0.06 0.06 0.08 0.08 0.06 0.04 0.03 0.03 0.03 0.03 0.03 0.03 0.03 0.04 0.04 0.05 0.06 0.06 0.07 0.07 0.07 0.07 0.07 0.08 0.09
0.00 0.00 0.00 0.00 0.00 0.00 0.00 0.01 0.01 0.01 0.01 0.01 0.01 0.02 0.02 0.02 0.02 0.03 0.05 0.06 0.07 0.09 0.10 0.09 0.06 0.05 0.04 0.04 0.05 0.06 0.07 0.06 0.05 0.04 0.04 0.04 0.04 0.05 0.05 0.06 0.07 0.07 0.08
0.00 0.00 0.00 0.00 0.00 0.00 0.00 0.00 0.01 0.01 0.01 0.01 0.01 0.01 0.02 0.02 0.02 0.02 0.02 0.03 0.04 0.06 0.09 0.10 0.12 0.11 0.09 0.08 0.07 0.08 0.08 0.08 0.07 0.06 0.05 0.04 0.04 0.04 0.04 0.04 0.05 0.05 0.06
0.00 0.00 0.00 0.00 0.00 0.00 0.00 0.01 0.01 0.01 0.01 0.01 0.01 0.02 0.02 0.02 0.02 0.01 0.01 0.02 0.03 0.03 0.06 0.09 0.10 0.12 0.12 0.11 0.09 0.08 0.08 0.07 0.07 0.06 0.05 0.05 0.05 0.05 0.06 0.05 0.05 0.05 0.05
0.00 0.00 0.00 0.00 0.00 0.00 0.01 0.01 0.01 0.01 0.01 0.01 0.01 0.02 0.02 0.02 0.02 0.02 0.02 0.02 0.02 0.03 0.03 0.06 0.08 0.08 0.08 0.08 0.08 0.07 0.06 0.05 0.04 0.04 0.04 0.04 0.05 0.05 0.05 0.06 0.05 0.05 0.05
0.00 0.00 0.00 0.00 0.00 0.01 0.01 0.01 0.01 0.01 0.01 0.01 0.01 0.01 0.02 0.02 0.02 0.03 0.03 0.02 0.03 0.03 0.03 0.03 0.04 0.04 0.04 0.04 0.05 0.05 0.05 0.04 0.03 0.03 0.03 0.03 0.04 0.05 0.05 0.05 0.05 0.05 0.05
0.01 0.01 0.00 0.00 0.01 0.01 0.01 0.01 0.01 0.01 0.01 0.01 0.01 0.01 0.01 0.01 0.02 0.02 0.02 0.02 0.02 0.02 0.03 0.03 0.03 0.03 0.02 0.02 0.02 0.03 0.03 0.03 0.03 0.03 0.02 0.02 0.03 0.03 0.04 0.05 0.06 0.06 0.06
0.01 0.00 0.00 0.00 0.00 0.00 0.00 0.01 0.01 0.01 0.01 0.01 0.01 0.01 0.01 0.01 0.01 0.01 0.01 0.01 0.01 0.01 0.01 0.01 0.02 0.02 0.02 0.02 0.01 0.02 0.01 0.01 0.01 0.02 0.02 0.02 0.03 0.04 0.05 0.07 0.07 0.07 0.07
0.01 0.00 0.00 0.00 0.00 0.00 0.00 0.01 0.01 0.01 0.01 0.01 0.01 0.01 0.01 0.01 0.01 0.00 0.00 0.00 0.00 0.00 0.00 0.01 0.01 0.01 0.02 0.01 0.01 0.01 0.01 0.01 0.01 0.01 0.01 0.01 0.02 0.05 0.07 0.07 0.06 0.05 0.05
0.00 0.00 0.00 0.00 0.00 0.00 0.00 0.00 0.00 0.00 0.00 0.00 0.00 0.00 0.01 0.01 0.01 0.01 0.00 0.00 0.00 0.00 0.00 0.00 0.01 0.01 0.01 0.01 0.01 0.01 0.01 0.01 0.01 0.01 0.01 0.03 0.06 0.07 0.06 0.04 0.04 0.03 0.02
0.00 0.00 0.00 0.00 0.00 0.00 0.00 0.00 0.00 0.00 0.00 0.00 0.00 0.00 0.01 0.01 0.01 0.01 0.01 0.00 0.00 0.00 0.00 0.00 0.00 0.00 0.01 0.01 0.01 0.01 0.01 0.01 0.01 0.01 0.02 0.04 0.04 0.04 0.03 0.02 0.02 0.02 0.01
0.00 0.00 0.00 0.00 0.00 0.00 0.00 0.01 0.00 0.00 0.00 0.00 0.00 0.00 0.01 0.01 0.01 0.01 0.01 0.01 0.00 0.00 0.00 0.00 0.01 0.01 0.01 0.01 0.02 0.02 0.02 0.01 0.01 0.01 0.02 0.02 0.02 0.02 0.02 0.02 0.02 0.02 0.02
0.00 0.00 0.00 0.00 0.01 0.01 0.01 0.01 0.00 0.00 0.00 0.01 0.01 0.00 0.00 0.01 0.01 0.01 0.01 0.01 0.01 0.01 0.01 0.01 0.01 0.01 0.01 0.01 0.01 0.02 0.02 0.02 0.02 0.02 0.01 0.01 0.01 0.01 0.02 0.02 0.02 0.02 0.02
0.00 0.00 0.00 0.00 0.00 0.00 0.00 0.00 0.00 0.00 0.00 0.00 0.00 0.00 0.01 0.01 0.01 0.01 0.01 0.01 0.01 0.02 0.02 0.01 0.01 0.01 0.01 0.01 0.01 0.02 0.02 0.02 0.02 0.02 0.02 0.02 0.02 0.02 0.02 0.02 0.02 0.02 0.02
0.00 0.00 0.00 0.00 0.00 0.00 0.00 0.00 0.00 0.00 0.00 0.01 0.01 0.01 0.01 0.01 0.01 0.01 0.01 0.01 0.01 0.02 0.03 0.03 0.03 0.02 0.01 0.01 0.01 0.02 0.02 0.02 0.02 0.02 0.02 0.02 0.02 0.03 0.03 0.03 0.03 0.02 0.02
0.00 0.00 0.00 0.00 0.00 0.00 0.00 0.00 0.00 0.00 0.00 0.01 0.01 0.01 0.01 0.01 0.01 0.01 0.01 0.02 0.02 0.02 0.03 0.03 0.04 0.03 0.02 0.02 0.02 0.02 0.02 0.02 0.02 0.02 0.02 0.02 0.02 0.02 0.02 0.02 0.02 0.02 0.02
0.00 0.00 0.00 0.00 0.00 0.00 0.00 0.00 0.00 0.00 0.01 0.01 0.01 0.01 0.01 0.01 0.01 0.01 0.01 0.01 0.02 0.02 0.02 0.02 0.02 0.02 0.02 0.01 0.01 0.01 0.02 0.02 0.02 0.02 0.02 0.02 0.02 0.02 0.02 0.02 0.02 0.03 0.03
MSLP
1013.54 1012.88 1012.26 1011.72 1011.33 1011.12 1011.13 1011.36 1011.79 1012.36 1013.00 1013.64 1014.20 1014.63 1014.90 1015.00 1014.95 1014.78 1014.52 1014.23 1013.94 1013.67 1013.44 1013.25 1013.09 1012.97 1012.88 1012.82 1012.79 1012.82 1012.91 1013.06 1013.28 1013.54 1013.83 1014.11 1014.37 1014.59 1014.74 1014.83 1014.89 1014.94 1015.01
1013.32 1012.70 1012.11 1011.59 1011.19 1010.96 1010.94 1011.15 1011.56 1012.14 1012.82 1013.52 1014.16 1014.68 1015.03 1015.20 1015.20 1015.06 1014.84 1014.57 1014.30 1014.04 1013.83 1013.64 1013.47 1013.32 1013.17 1013.03 1012.92 1012.85 1012.84 1012.91 1013.06 1013.28 1013.55 1013.83 1014.10 1014.31 1014.45 1014.52 1014.54 1014.53 1014.55
1013.12 1012.59 1012.08 1011.62 1011.25 1011.02 1010.97 1011.14 1011.52 1012.08 1012.76 1013.48 1014.16 1014.74 1015.15 1015.38 1015.43 1015.34 1015.16 1014.92 1014.67 1014.44 1014.23 1014.04 1013.85 1013.66 1013.45 1013.23 1013.03 1012.86 1012.76 1012.75 1012.85 1013.04 1013.29 1013.57 1013.84 1014.05 1014.18 1014.21 1014.18 1014.12 1014.06
1013.04 1012.63 1012.23 1011.85 1011.53 1011.31 1011.24 1011.36 1011.69 1012.19 1012.83 1013.53 1014.22 1014.82 1015.27 1015.55 1015.65 1015.62 1015.48 1015.28 1015.06 1014.85 1014.64 1014.44 1014.23 1013.99 1013.72 1013.43 1013.14 1012.89 1012.72 1012.65 1012.69 1012.85 1013.09 1013.37 1013.63 1013.83 1013.94 1013.94 1013.85 1013.71 1013.58
1013.13 1012.85 1012.58 1012.30 1012.03 1011.82 1011.72 1011.78 1012.02 1012.45 1013.02 1013.66 1014.32 1014.92 1015.39 1015.71 1015.86 1015.88 1015.79 1015.63 1015.44 1015.25 1015.05 1014.84 1014.61 1014.33 1014.01 1013.66 1013.31 1012.99 1012.75 1012.63 1012.63 1012.75 1012.97 1013.23 1013.48 1013.66 1013.73 1013.69 1013.53 1013.32 1013.10
1013.41 1013.25 1013.09 1012.90 1012.69 1012.48 1012.34 1012.33 1012.48 1012.80 1013.27 1013.84 1014.46 1015.03 1015.51 1015.86 1016.06 1016.12 1016.07 1015.96 1015.81 1015.63 1015.44 1015.23 1014.98 1014.68 1014.32 1013.93 1013.53 1013.16 1012.87 1012.69 1012.65 1012.73 1012.91 1013.13 1013.35 1013.50 1013.53 1013.43 1013.22 1012.93 1012.63
1013.83 1013.78 1013.72 1013.59 1013.41 1013.20 1013.01 1012.92 1012.96 1013.18 1013.55 1014.04 1014.59 1015.14 1015.62 1015.99 1016.22 1016.33 1016.33 1016.25 1016.13 1015.98 1015.80 1015.59 1015.33 1015.02 1014.65 1014.23 1013.80 1013.40 1013.06 1012.83 1012.73 1012.75 1012.87 1013.05 1013.21 1013.31 1013.30 1013.16 1012.91 1012.56 1012.18
1014.34 1014.36 1014.36 1014.28 1014.11 1013.87 1013.64 1013.46 1013.41 1013.52 1013.80 1014.21 1014.71 1015.23 1015.70 1016.09 1016.35 1016.50 1016.54 1016.49 1016.40 1016.26 1016.10 1015.90 1015.65 1015.34 1014.97 1014.55 1014.11 1013.67 1013.29 1013.01 1012.84 1012.79 1012.83 1012.93 1013.03 1013.08 1013.03 1012.87 1012.58 1012.20 1011.79
1014.86 1014.92 1014.95 1014.88 1014.70 1014.44 1014.14 1013.90 1013.77 1013.80 1014.00 1014.34 1014.79 1015.28 1015.75 1016.15 1016.43 1016.61 1016.67 1016.66 1016.59 1016.47 1016.32 1016.14 1015.91 1015.62 1015.26 1014.85 1014.41 1013.95 1013.53 1013.19 1012.94 1012.80 1012.75 1012.76 1012.80 1012.80 1012.72 1012.54 1012.25 1011.88 1011.46
1015.37 1015.43 1015.45 1015.36 1015.16 1014.86 1014.52 1014.22 1014.03 1013.99 1014.13 1014.43 1014.84 1015.30 1015.76 1016.16 1016.46 1016.65 1016.74 1016.74 1016.68 1016.58 1016.46 1016.29 1016.09 1015.83 1015.50 1015.11 1014.67 1014.20 1013.75 1013.34 1013.00 1012.77 1012.62 1012.55 1012.51 1012.47 1012.38 1012.21 1011.95 1011.62 1011.23
1015.83 1015.87 1015.85 1015.73 1015.49 1015.16 1014.78 1014.45 1014.21 1014.14 1014.23 1014.48 1014.86 1015.30 1015.74 1016.13 1016.42 1016.62 1016.71 1016.72 1016.68 1016.60 1016.49 1016.35 1016.18 1015.95 1015.66 1015.30 1014.87 1014.40 1013.91 1013.44 1013.03 1012.70 1012.46 1012.30 1012.20 1012.12 1012.03 1011.90 1011.70 1011.42 1011.09
1016.28 1016.27 1016.21 1016.05 1015.77 1015.40 1015.01 1014.65 1014.39 1014.28 1014.34 1014.56 1014.89 1015.29 1015.70 1016.06 1016.34 1016.52 1016.61 1016.62 1016.58 1016.51 1016.42 1016.32 1016.18 1015.99 1015.74 1015.41 1015.01 1014.53 1014.02 1013.51 1013.03 1012.61 1012.29 1012.05 1011.90 1011.80 1011.72 1011.63 1011.49 1011.29 1011.04
1016.73 1016.68 1016.58 1016.37 1016.06 1015.67 1015.26 1014.89 1014.62 1014.48 1014.51 1014.68 1014.96 1015.31 1015.66 1015.98 1016.22 1016.37 1016.45 1016.45 1016.41 1016.35 1016.28 1016.20 1016.10 1015.95 1015.74 1015.44 1015.06 1014.59 1014.07 1013.52 1012.99 1012.51 1012.12 1011.82 1011.63 1011.51 1011.45 1011.40 1011.33 1011.21 1011.03
1017.23 1017.14 1016.99 1016.75 1016.42 1016.02 1015.61 1015.23 1014.94 1014.78 1014.76 1014.87 1015.08 1015.36 1015.64 1015.89 1016.08 1016.19 1016.23 1016.22 1016.18 1016.13 1016.07 1016.02 1015.94 1015.83 1015.65 1015.39 1015.03 1014.58 1014.05 1013.48 1012.92 1012.39 1011.95 1011.62 1011.39 1011.26 1011.21 1011.20 1011.18 1011.13 1011.01
1017.76 1017.64 1017.46 1017.20 1016.86 1016.46 1016.05 1015.67 1015.37 1015.17 1015.10 1015.13 1015.26 1015.43 1015.62 1015.79 1015.91 1015.97 1015.99 1015.96 1015.92 1015.87 1015.82 1015.78 1015.73 1015.64 1015.48 1015.24 1014.90 1014.47 1013.94 1013.37 1012.79 1012.25 1011.78 1011.41 1011.16 1011.03 1010.98 1010.99 1011.02 1011.01 1010.95
1018.31 1018.16 1017.96 1017.69 1017.35 1016.96 1016.56 1016.18 1015.85 1015.62 1015.48 1015.42 1015.45 1015.51 1015.60 1015.67 1015.72 1015.73 1015.71 1015.66 1015.61 1015.57 1015.53 1015.50 1015.46 1015.37 1015.23 1015.00 1014.68 1014.25 1013.74 1013.17 1012.59 1012.04 1011.56 1011.18 1010.92 1010.77 1010.73 1010.76 1010.80 1010.83 1010.82
1018.81 1018.64 1018.42 1018.14 1017.81 1017.44 1017.05 1016.67 1016.33 1016.05 1015.83 1015.69 1015.60 1015.55 1015.52 1015.50 1015.48 1015.43 1015.38 1015.33 1015.27 1015.23 1015.20 1015.17 1015.12 1015.03 1014.88 1014.66 1014.33 1013.92 1013.42 1012.86 1012.29 1011.75 1011.27 1010.89 1010.63 1010.48 1010.44 1010.47 1010.53 1010.58 1010.60
1019.20 1019.00 1018.76 1018.47 1018.15 1017.80 1017.42 1017.05 1016.69 1016.37 1016.08 1015.84 1015.65 1015.49 1015.36 1015.25 1015.15 1015.07 1014.99 1014.93 1014.87 1014.83 1014.80 1014.76 1014.70 1014.60 1014.44 1014.20 1013.87 1013.46 1012.97 1012.44 1011.89 1011.36 1010.90 1010.53 1010.27 1010.13 1010.09 1010.12 1010.19 1010.27 1010.32
1019.41 1019.17 1018.90 1018.60 1018.29 1017.95 1017.60 1017.23 1016.86 1016.50 1016.15 1015.83 1015.54 1015.28 1015.06 1014.88 1014.73 1014.61 1014.51 1014.45 1014.40 1014.36 1014.32 1014.27 1014.20 1014.07 1013.89 1013.63 1013.30 1012.89 1012.41 1011.90 1011.38 1010.89 1010.46 1010.11 1009.86 1009.73 1009.69 1009.74 1009.83 1009.93 1010.02
1019.43 1019.12 1018.80 1018.49 1018.18 1017.86 1017.52 1017.17 1016.79 1016.41 1016.01 1015.62 1015.26 1014.92 1014.62 1014.38 1014.18 1014.04 1013.94 1013.87 1013.83 1013.79 1013.75 1013.70 1013.60 1013.46 1013.25 1012.98 1012.64 1012.23 1011.78 1011.29 1010.81 1010.36 1009.96 1009.64 1009.42 1009.30 1009.28 1009.34 1009.46 1009.60 1009.73
1019.23 1018.84 1018.47 1018.13 1017.82 1017.51 1017.19 1016.85 1016.49 1016.08 1015.66 1015.23 1014.80 1014.41 1014.05 1013.76 1013.54 1013.37 1013.27 1013.20 1013.17 1013.14 1013.10 1013.04 1012.93 1012.77 1012.54 1012.26 1011.92 1011.53 1011.10 1010.65 1010.21 1009.80 1009.44 1009.16 1008.97 1008.88 1008.88 1008.97 1009.11 1009.29 1009.49
1018.86 1018.37 1017.95 1017.57 1017.25 1016.95 1016.65 1016.34 1015.98 1015.58 1015.14 1014.68 1014.22 1013.78 1013.39 1013.07 1012.82 1012.64 1012.53 1012.47 1012.44 1012.42 1012.38 1012.31 1012.19 1012.02 1011.80 1011.52 1011.19 1010.81 1010.42 1010.01 1009.62 1009.25 1008.94 1008.70 1008.54 1008.47 1008.50 1008.61 1008.80 1009.03 1009.28
1018.34 1017.77 1017.28 1016.88 1016.54 1016.25 1015.98 1015.68 1015.34 1014.95 1014.51 1014.04 1013.57 1013.11 1012.70 1012.35 1012.08 1011.90 1011.78 1011.72 1011.68 1011.66 1011.62 1011.54 1011.43 1011.26 1011.04 1010.77 1010.46 1010.12 1009.76 1009.40 1009.05 1008.73 1008.46 1008.25 1008.12 1008.08 1008.14 1008.28 1008.50 1008.78 1009.11
1017.72 1017.08 1016.54 1016.11 1015.77 1015.49 1015.23 1014.96 1014.64 1014.27 1013.85 1013.38 1012.90 1012.44 1012.02 1011.66 1011.38 1011.18 1011.05 1010.98 1010.93 1010.90 1010.85 1010.78 1010.66 1010.49 1010.28 1010.04 1009.75 1009.45 1009.13 1008.82 1008.51 1008.23 1007.99 1007.82 1007.71 1007.69 1007.77 1007.94 1008.20 1008.53 1008.92
1017.04 1016.35 1015.78 1015.34 1014.99 1014.72 1014.48 1014.23 1013.93 1013.59 1013.18 1012.74 1012.27 1011.81 1011.39 1011.03 1010.74 1010.53 1010.38 1010.29 1010.22 1010.17 1010.11 1010.02 1009.90 1009.74 1009.55 1009.32 1009.07 1008.80 1008.52 1008.24 1007.97 1007.73 1007.52 1007.36 1007.27 1007.27 1007.36 1007.56 1007.85 1008.24 1008.70
1016.33 1015.61 1015.03 1014.58 1014.24 1013.97 1013.74 1013.51 1013.24 1012.91 1012.54 1012.12 1011.68 1011.24 1010.83 1010.47 1010.18 1009.95 1009.78 1009.66 1009.57 1009.49 1009.41 1009.30 1009.17 1009.01 1008.82 1008.62 1008.39 1008.15 1007.90 1007.66 1007.42 1007.19 1007.00 1006.86 1006.78 1006.78 1006.89 1007.11 1007.44 1007.88 1008.40
Thickness
5580 5582 5584 5586 5588 5590 5592 5594 5595 5597 5599 5599 5600 5602 5603 5605 5605 5606 5607 5607 5608 5609 5609 5610 5610 5611 5611 5611 5611 5611 5611 5610 5611 5610 5611 5613 5616 5616 5618 5619 5619 5619 5618
5568 5571 5572 5575 5576 5578 5580 5582 5584 5585 5587 5588 5589 5591 5592 5593 5594 5595 5596 5596 5597 5597 5598 5599 5600 5600 5601 5601 5601 5601 5600 5600 5601 5600 5599 5600 5604 5607 5609 5610 5610 5611 5610
5557 5559 5560 5562 5563 5565 5567 5570 5572 5574 5575 5577 5578 5580 5581 5582 5583 5583 5584 5585 5586 5586 5587 5588 5589 5590 5590 5591 5592 5592 5591 5590 5590 5591 5591 5590 5593 5595 5598 5600 5601 5601 5601
5547 5548 5549 5550 5551 5553 5555 5557 5559 5561 5563 5565 5566 5568 5569 5570 5571 5573 5574 5575 5575 5575 5576 5577 5579 5580 5581 5582 5582 5583 5582 5581 5580 5580 5581 5583 5584 5583 5586 5589 5591 5592 5592
5537 5538 5538 5539 5540 5541 5543 5545 5547 5549 5551 5553 5554 5556 5557 5558 5559 5561 5562 5564 5564 5565 5566 5567 5569 5570 5571 5572 5572 5572 5572 5572 5572 5571 5570 5571 5572 5574 5574 5577 5578 5580 5582
5527 5527 5527 5527 5528 5529 5530 5532 5534 5537 5539 5541 5543 5544 5545 5547 5548 5549 5551 5552 5553 5554 5556 5557 5558 5560 5560 5561 5561 5561 5562 5562 5562 5561 5562 5562 5562 5563 5564 5565 5566 5568 5572
5515 5515 5515 5515 5516 5516 5518 5520 5522 5524 5526 5528 5530 5532 5533 5535 5537 5538 5538 5540 5542 5543 5545 5546 5547 5549 5550 5550 5550 5550 5551 5551 5551 5551 5552 5553 5554 5554 5555 5555 5555 5556 5559
5505 5505 5505 5504 5504 5505 5506 5507 5509 5511 5513 5515 5517 5519 5521 5523 5525 5526 5527 5529 5530 5532 5534 5534 5536 5538 5539 5539 5539 5539 5540 5540 5540 5541 5541 5541 5543 5543 5544 5545 5543 5543 5546
5493 5492 5492 5492 5493 5494 5495 5496 5498 5500 5501 5503 5505 5506 5508 5510 5512 5514 5515 5517 5518 5520 5522 5523 5523 5525 5526 5527 5527 5528 5529 5528 5528 5529 5530 5530 5531 5532 5532 5533 5534 5533 5534
5480 5480 5480 5480 5481 5482 5483 5485 5487 5488 5489 5491 5492 5494 5495 5497 5499 5501 5503 5504 5506 5507 5509 5510 5512 5513 5514 5515 5516 5517 5517 5517 5517 5517 5517 5518 5520 5520 5521 5521 5523 5524 5524
5470 5469 5468 5468 5469 5469 5471 5472 5474 5475 5477 5478 5480 5481 5482 5484 5486 5488 5490 5492 5493 5495 5496 5497 5499 5500 5502 5503 5503 5505 5505 5505 5506 5506 5507 5507 5508 5509 5509 5510 5511 5512 5513
5458 5456 5456 5456 5457 5457 5459 5459 5461 5462 5464 5465 5467 5468 5470 5472 5473 5475 5477 5479 5481 5482 5483 5484 5486 5487 5488 5490 5491 5492 5493 5493 5494 5495 5495 5496 5496 5497 5497 5498 5499 5501 5502
5446 5444 5444 5444 5444 5445 5446 5447 5448 5449 5451 5453 5454 5455 5457 5458 5460 5462 5464 5466 5467 5469 5470 5471 5472 5474 5475 5476 5477 5479 5480 5480 5481 5482 5483 5484 5484 5485 5485 5486 5488 5489 5491
5436 5434 5433 5432 5432 5433 5434 5435 5436 5437 5439 5440 5441 5442 5444 5446 5447 5449 5451 5452 5454 5455 5457 5458 5459 5460 5461 5463 5464 5465 5466 5467 5469 5469 5471 5472 5472 5473 5473 5475 5477 5478 5480
5425 5425 5423 5421 5421 5421 5422 5423 5424 5426 5427 5428 5429 5430 5432 5434 5436 5437 5438 5439 5440 5442 5443 5444 5446 5447 5448 5450 5452 5453 5454 5455 5456 5457 5458 5459 5460 5462 5463 5465 5467 5468 5470
5415 5415 5414 5413 5412 5411 5411 5412 5413 5415 5416 5417 5418 5420 5421 5422 5424 5425 5426 5426 5427 5429 5430 5431 5433 5434 5436 5438 5440 5441 5442 5443 5444 5446 5446 5447 5449 5451 5453 5456 5458 5459 5460
5407 5405 5404 5404 5402 5402 5402 5402 5403 5404 5405 5407 5408 5409 5410 5411 5412 5413 5414 5414 5415 5416 5417 5419 5420 5422 5424 5426 5428 5429 5430 5430 5432 5433 5434 5436 5438 5439 5441 5444 5446 5448 5450
5398 5397 5395 5394 5393 5393 5392 5393 5393 5394 5395 5396 5397 5398 5399 5400 5401 5402 5403 5403 5404 5404 5405 5406 5408 5410 5412 5414 5416 5417 5418 5419 5420 5422 5423 5425 5426 5428 5430 5432 5434 5436 5438
5389 5388 5387 5386 5385 5384 5384 5384 5384 5384 5385 5386 5387 5388 5388 5389 5391 5391 5391 5392 5392 5393 5393 5395 5396 5398 5400 5403 5404 5405 5406 5408 5409 5411 5412 5414 5416 5418 5420 5421 5423 5425 5427
5381 5379 5378 5377 5376 5376 5376 5375 5376 5376 5376 5377 5378 5378 5379 5379 5380 5380 5380 5381 5381 5382 5382 5384 5385 5387 5389 5391 5393 5395 5396 5397 5399 5400 5402 5403 5406 5407 5409 5410 5411 5413 5415
5372 5371 5370 5369 5369 5368 5368 5367 5367 5368 5369 5369 5369 5369 5370 5369 5369 5370 5370 5370 5370 5371 5371 5373 5374 5376 5378 5381 5383 5385 5385 5387 5389 5390 5392 5393 5396 5398 5399 5400 5401 5403 5404
5364 5363 5362 5361 5361 5360 5360 5360 5360 5360 5360 5360 5360 5360 5360 5360 5360 5359 5360 5360 5360 5360 5361 5362 5364 5366 5368 5370 5373 5375 5377 5379 5379 5381 5383 5384 5386 5388 5389 5390 5392 5393 5393
5355 5354 5353 5353 5352 5352 5352 5352 5352 5352 5352 5352 5352 5351 5351 5350 5350 5349 5350 5350 5350 5350 5352 5353 5354 5357 5358 5360 5363 5365 5367 5369 5370 5372 5374 5375 5376 5377 5378 5380 5381 5382 5382
5347 5346 5345 5344 5345 5345 5345 5345 5345 5345 5345 5344 5344 5343 5342 5342 5341 5341 5341 5341 5341 5341 5343 5344 5346 5347 5349 5351 5353 5355 5356 5358 5360 5361 5364 5365 5366 5366 5367 5369 5370 5371 5373
5339 5338 5337 5338 5338 5338 5338 5338 5337 5337 5337 5336 5336 5335 5334 5333 5332 5332 5332 5332 5333 5333 5335 5336 5337 5338 5340 5343 5346 5347 5348 5349 5351 5352 5353 5353 5354 5356 5357 5358 5359 5361 5362
5331 5331 5330 5330 5330 5330 5330 5330 5330 5330 5329 5329 5329 5328 5326 5325 5325 5324 5325 5325 5326 5328 5329 5330 5330 5332 5334 5336 5338 5339 5341 5342 5343 5343 5343 5344 5345 5346 5347 5349 5350 5351 5353